S6 MICHAEL FREILICH

导读

**Sentinel-6 Michael Freilich卫星**(简称S6)于2020年11月21日由欧洲空间局(ESA)主导发射,是欧美联合开展的海平面监测任务。卫星以NASA地球科学部前主任迈克尔·弗里利希博士命名,将持续采集高精度全球海平面数据,追踪气候变化背景下的海平面上升,同时获取大气温湿信息优化天气预报与气候模型,延续近30年全球海洋观测数据记录。

基本信息
目录编号:
46984
目录名称:
S6 MICHAEL FREILICH
国际标识:
2020-086A
轨道中心:
EARTH
卫星名称:
S6 MICHAEL FREILICH
卫星全名:
--
卫星状态:
在轨 (已飞行2034 天)
发射日期:
2020-11-21 UTC
国别 :
(ESA)
星等 :
--
轨道信息
数据来源 国际轨道数据 AOE轨道数据
星历时间 2026-06-17T11:55:32+0800
5小时前
查看轨道信息
2026-06-16T16:00:00+0800
1天前
查看轨道信息
半长轴 7715.871km 7715.869km
偏心率 0.0007943 0.0008144
轨道倾角 66.039° 66.041°
近地点辐角 270.213° 271.371°
升交点赤经 135.101° 136.826°
平近点角 89.797° 220.553°
近地点 1331.605km 1331.448km
远地点 1343.863km 1344.016km
周期 112.418分钟 112.418分钟
每日圈数 12.809299 12.809303
详细信息
使用方式:
暂无
2D轨道图
3D轨道图
轨道高度分析图
轨道倾角分析图
轨道综合分析图
查看轨道综合分析图